Miscellaneous Hydrologic Data Report
Issued by NWS (Baltimore/Washington) Sterling, VA
1 of 27 available versions  First Miscellaneous Hydrologic Data Report Previous Miscellaneous Hydrologic Data Report  Print this page Close this Window


000
ASUS41 KLWX 030210
RWRLWX

REGIONAL WEATHER ROUNDUP
NATIONAL WEATHER SERVICE BALTIMORE MD/WASHINGTON DC
1000 PM EDT MON MAY 02 2016

Note: "FAIR" indicates few or no clouds below 12,000 feet
with no significant weather and/or obstructions to visibility.
 TC=TEMPERATURE CELSIUS

 * =Non NWS site. Station does not report precipitation (e.g. rain,
    snow, etc.), thunder, or fog.

DCZ001-MDZ009-015-VAZ040>042-051-053>054-030300-
WASHINGTON METRO

CITY           SKY/WX    TMP DP  RH WIND       PRES   REMARKS
WASHINGTON NAT CLOUDY    62  58  86 NE14      29.88F
DULLES         LGT RAIN  65  63  93 E8        29.87F
QUANTICO       TSTM      69  64  84 NE3       29.88R
COLLEGE PARK*  MOCLDY    59  55  88 N5        29.88S
LEESBURG*      LGT RAIN  64  64 100 E5        29.87F
GAITHERSBURG*  CLOUDY    63  57  82 NE5       29.90F

$$

MDZ006>007-011-014-030300-
BALTIMORE METRO

CITY           SKY/WX    TMP DP  RH WIND       PRES   REMARKS
BWI AIRPORT    TSTM      65  63  93 S7        29.88R
MD SCIENCE CTR   N/A     65  63  93 MISG      29.89R
MARTIN STATE   TSTM      63  63 100 NE3       29.91R
ANNAPOLIS      LGT RAIN  64  62  93 NW9       29.86S FOG
FORT MEADE*    CLOUDY    63  61  94 S5        29.92R

$$

MDZ012-015-019>023-030300-
MARYLAND EASTERN SHORE

CITY           SKY/WX    TMP DP  RH WIND       PRES   REMARKS
OCEAN CITY     CLOUDY    60  58  92 S5        29.88R
SALISBURY      CLOUDY    70  65  84 SE8       29.86R
CAMBRIDGE*     CLOUDY    72  64  78 S9        29.84R
EASTON*        TSTM     N/A N/A N/A N12G18    29.91R FOG

$$

MDZ017>025-030300-
SOUTHERN MARYLAND

CITY           SKY/WX    TMP DP  RH WIND       PRES   REMARKS
PATUXENT RIVER CLOUDY    72  60  66 S13       29.84R
ST INIGOES     TSTM      68  63  84 S13G23    29.88R
LEONARDTOWN*   CLOUDY    70  63  78 CALM      29.86R

$$

MDZ003>005-030300-
NORTH CENTRAL MARYLAND

CITY           SKY/WX    TMP DP  RH WIND       PRES   REMARKS
FREDERICK*     RAIN      63  63 100 SE3       29.88F
HAGERSTOWN APT CLOUDY    66  59  78 NE10      29.86S
WESTMINSTER*   TSTM      64  61  88 W6        29.91R

$$

MDZ501>502-030300-
WESTERN MARYLAND

CITY           SKY/WX    TMP DP  RH WIND       PRES   REMARKS
OAKLAND*       CLOUDY    54  54 100 SE7       29.91F FOG
CUMBERLAND*    CLOUDY    68  55  64 NW5       29.91S

$$

VAZ025>031-030300-
SHENANDOAH VALLEY

CITY           SKY/WX    TMP DP  RH WIND       PRES   REMARKS
WINCHESTER*    FAIR      64  61  88 SW8       29.86S
FRONT ROYAL*   FAIR      63  63 100 S8        29.87R
LURAY*         FAIR      61  61 100 CALM      29.89R
NEW MARKET*    MOCLDY    60  60  99 CALM      29.79F
STAUNTON*      FAIR      63  63 100 CALM      29.93S
WAYNESBORO*    MOCLDY    61  60  96 CALM      29.93R

$$

WVZ021-048>050-054>055-030300-
EASTERN WEST VIRGINIA PANHANDLE

CITY           SKY/WX    TMP DP  RH WIND       PRES   REMARKS
MARTINSBURG    MOCLDY    66  61  84 VRB5      29.85R
PETERSBURG*    MOCLDY    67  54  64 E7        29.88F

$$

VAZ036>039-050-030300-
CENTRAL FOOTHILLS

CITY           SKY/WX    TMP DP  RH WIND       PRES   REMARKS
CHARLOTTESVILL RAIN      64  61  90 VRB3      29.89F
CULPEPER*      LGT RAIN  70  64  83 S6        29.90R
ORANGE*        RAIN      64  64 100 NE5       29.93R
GORDONSVILLE*  CLOUDY    63  62  97 NW5       29.90F
WARRENTON*     LGT RAIN  67  59  75 SE3       29.87R

$$

VAZ055>057-030300-
NORTH AND CENTRAL PIEDMONT

CITY           SKY/WX    TMP DP  RH WIND       PRES   REMARKS
FREDERICKSBRG* LGT RAIN  69  65  86 SW8       29.90R
STAFFORD*      LGT RAIN  67  62  85 SW7       29.95R

$$

NCZ024-NYZ072-PAZ021-071-VAZ022-071-030300-
OTHER REGIONAL OBSERVATIONS

CITY           SKY/WX    TMP DP  RH WIND       PRES   REMARKS
NEW YORK CITY  CLOUDY    57  51  80 CALM      29.96R
PHILADELPHIA   CLOUDY    62  54  74 E5        29.91F
PITTSBURGH     CLOUDY    54  47  77 N9        29.92S
ROANOKE        MOCLDY    64  62  93 E3        29.93F
RICHMOND       LGT RAIN  68  65  90 S8        29.90R
RALEIGH        MOCLDY    68  62  81 S12       29.93R

$$

ANZ530>537-030300-
MARINE OBSERVATIONS

STATION/POSITION TIME  TEMP    WIND        PRES
                       AIR SEA DIR/SP/G
                 (UTC) (F)     (DEG/KT/KT) (MB)
THOMAS PT LIGHT  0200   64 58  310/ 19/ 21 1013.2R
BALT KEY BRIDGE  0100   64                 1010.8R
COVE POINT       0100   66                 1010.1F
LEWISETTA        0100   72 62              1009.4F
SOLOMONS ISLAND  0100   70 62                N/A
PINEY POINT      0100          180/  5/  6   N/A

$$



Close this window


The National Weather Service prepares its forecasts and other services in collaboration with agencies like the US Geological Survey, US Bureau of Reclamation, US Army Corps of Engineers, Natural Resource Conservation Service, National Park Service, ALERT Users Group, Bureau of Indian Affairs, and many state and local emergency managers across the country. For details, please click here.

National Weather Service
(Baltimore/Washington) Sterling Weather Forecast Office
43858 Weather Service Rd.
Sterling, VA 20166
(703) 996-2200
Page last modified: 3-May-2016 2:10 AM
Disclaimer
Credits
Glossary
Privacy Policy
About Us
Career Opportunities